Weather Roundup
Issued by NWS Chicago, IL

Home | Current Version | Previous Version | Graphics & Text | Print | Product List | Glossary On
Versions: 1 2 3 4 5 6 7 8 9 10 11 12 13 14 15 16 17 18 19 20 21 22 23 24 25 26 27 28 29 30 31 32 33 34 35 36 37 38 39 40 41 42 43 44 45 46 47 48 49 50
000
NZUS59 KLOT 251109
HRRLOT

CHICAGO AREA WEATHER ROUNDUP
NATIONAL WEATHER SERVICE CHICAGO/ROMEOVILLE IL
600 AM CDT THU AUG 25 2016

NOTE: "FAIR" INDICATES FEW OR NO CLOUDS BELOW 12,000 FEET WITH NO
SIGNIFICANT WEATHER AND/OR OBSTRUCTIONS TO VISIBILITY.

* THESE STATIONS ARE NOT UNDER NWS QUALITY CONTROL. THEY ALSO MAY NOT
  REPORT WEATHER SUCH AS PRECIPITATION OR FOG.

ILZ005-006-012>014-019>023-251200-
NORTHEAST ILLINOIS

CITY           SKY/WX    TMP DP  RH WIND       PRES   REMARKS
OHARE          CLOUDY    71  69  93 S5        29.95S
MIDWAY         LGT RAIN  73  69  87 SW7       29.96S
AURORA         CLOUDY    71  69  93 SW6       29.98R
LANSING*       CLOUDY    69  66  91 SE3       29.96F
JOLIET*        CLOUDY    72  71  97 SW3       29.99R
WAUKEGAN       LGT RAIN  70  68  93 CALM      29.96R
DUPAGE AIRPORT CLOUDY    70  67  90 S6        29.96R
WHEELING       CLOUDY    72  69  90 CALM      29.96S
KANKAKEE*      MOCLDY    70  69  98 W3        30.00R
MORRIS*        CLOUDY    71  69  95 CALM      29.97R
LEWIS AIRPORT* CLOUDY    70  69  95 SW3       29.99R
NORTHERLY ISL    N/A     73  68  84 S2          N/A
$$

WIZ051-052-058>065-066-070>072-251200-
SOUTHEAST WISCONSIN

CITY           SKY/WX    TMP DP  RH WIND       PRES   REMARKS
MILWAUKEE      LGT RAIN  71  67  87 CALM      29.97S
KENOSHA*       RAIN      68  67  96 N3        29.97S
RACINE*        RAIN      71  69  93 CALM      29.98S FOG
BURLINGTON     LGT RAIN  66  65  97 N6        29.99R
WAUKESHA       MOCLDY    66  66 100 W3        29.99R
$$

INZ001>003-010>013-019-020-251200-
NORTHWEST INDIANA

CITY           SKY/WX    TMP DP  RH WIND       PRES   REMARKS
GARY*          LGT RAIN  72  70  94 S3        29.97F
MICHIGAN CITY* NOT AVBL
RENSSELAER*    NOT AVBL
VALPARAISO     CLOUDY    69  67  93 CALM      29.99F
$$

LMZ740>746-251200-
SOUTHERN LAKE MICHIGAN

STATION/POSITION TIME  SKY/WX   TEMP WIND        PRES    VSBY
                                AIR  DIR/SP/G
                 (UTC)          (F)  (DEG/KT/KT) (MB)    (MI)
HARRISON CRIB    1000            74  210/ 17/ 21   N/A
BURNHAM HARBOR   1100            73  210/  1/ 11   N/A
CALUMET HARBOR   1000            72  200/  8/ 11 1014.3F
BURNS HARBOR     1013            72  210/ 11/ 19 1015.6F
MICHIGAN CITY    1000            72  180/ 14/ 16   N/A
$$

ABBREVIATIONS USED IN REMARKS
   TC - TEMPERATURE IN CELSIUS
  WCI - WIND CHILL INDEX
   HX - HEAT INDEX
  VSB - VISIBILITY
$$




USA.gov is the U.S. government's official web portal to all federal, state and local government web resources and services.